Year,Month,Day,Hour,Minute,Value (Times are PST for temperature in C)
2010,10,31,00,00,9.40
2010,10,31,00,01,9.40
2010,10,31,00,02,9.40
2010,10,31,00,03,9.40
2010,10,31,00,04,9.40
2010,10,31,00,05,9.40
2010,10,31,00,06,9.40
2010,10,31,00,07,9.30
2010,10,31,00,08,9.30
2010,10,31,00,09,9.30
2010,10,31,00,10,9.30
2010,10,31,00,11,9.30
2010,10,31,00,12,9.30
2010,10,31,00,13,9.30
2010,10,31,00,14,9.30
2010,10,31,00,15,9.30
2010,10,31,00,16,9.30
2010,10,31,00,17,9.20
2010,10,31,00,18,9.20
2010,10,31,00,19,9.20
2010,10,31,00,20,9.20
2010,10,31,00,21,9.20
2010,10,31,00,22,9.20
2010,10,31,00,23,9.20
2010,10,31,00,24,9.20
2010,10,31,00,25,9.20
2010,10,31,00,26,9.20
2010,10,31,00,27,9.10
2010,10,31,00,28,9.10
2010,10,31,00,29,9.10
2010,10,31,00,30,9.10
2010,10,31,00,31,9.10
2010,10,31,00,32,9.10
2010,10,31,00,33,9.10
2010,10,31,00,34,9.10
2010,10,31,00,35,9.10
2010,10,31,00,36,9.10
2010,10,31,00,37,9.10
2010,10,31,00,38,9.10
2010,10,31,00,39,9.00
2010,10,31,00,40,9.00
2010,10,31,00,41,9.00
2010,10,31,00,42,9.00
2010,10,31,00,43,9.00
2010,10,31,00,44,9.00
2010,10,31,00,45,9.00
2010,10,31,00,46,9.00
2010,10,31,00,47,9.00
2010,10,31,00,48,9.00
2010,10,31,00,49,9.00
2010,10,31,00,50,9.00
2010,10,31,00,51,9.00
2010,10,31,00,52,9.00
2010,10,31,00,53,9.00
2010,10,31,00,54,9.00
2010,10,31,00,55,9.00
2010,10,31,00,56,9.00
2010,10,31,00,57,9.00
2010,10,31,00,58,8.90
2010,10,31,00,59,8.90
2010,10,31,01,00,8.90
2010,10,31,01,01,8.90
2010,10,31,01,02,8.90
2010,10,31,01,03,8.90
2010,10,31,01,04,8.90
2010,10,31,01,05,9.00
2010,10,31,01,06,9.00
2010,10,31,01,07,9.00
2010,10,31,01,08,9.00
2010,10,31,01,09,9.00
2010,10,31,01,10,9.00
2010,10,31,01,11,9.00
2010,10,31,01,12,9.00
2010,10,31,01,13,9.00
2010,10,31,01,14,9.00
2010,10,31,01,15,9.00
2010,10,31,01,16,9.00
2010,10,31,01,17,9.00
2010,10,31,01,18,9.00
2010,10,31,01,19,9.00
2010,10,31,01,20,9.00
2010,10,31,01,21,9.10
2010,10,31,01,22,9.10
2010,10,31,01,23,9.00
2010,10,31,01,24,9.00
2010,10,31,01,25,9.00
2010,10,31,01,26,9.00
2010,10,31,01,27,9.00
2010,10,31,01,28,9.00
2010,10,31,01,29,9.00
2010,10,31,01,30,9.00
2010,10,31,01,31,9.10
2010,10,31,01,32,9.10
2010,10,31,01,33,9.10
2010,10,31,01,34,9.10
2010,10,31,01,35,9.00
2010,10,31,01,36,9.00
2010,10,31,01,37,9.10
2010,10,31,01,38,9.00
2010,10,31,01,39,9.00
2010,10,31,01,40,9.00
2010,10,31,01,41,9.00
2010,10,31,01,42,9.00
2010,10,31,01,43,9.00
2010,10,31,01,44,9.00
2010,10,31,01,45,9.00
2010,10,31,01,46,9.00
2010,10,31,01,47,9.00
2010,10,31,01,48,9.00
2010,10,31,01,49,9.00
2010,10,31,01,50,9.00
2010,10,31,01,51,9.00
2010,10,31,01,52,9.00
2010,10,31,01,53,9.00
2010,10,31,01,54,9.00
2010,10,31,01,55,9.00
2010,10,31,01,56,9.00
2010,10,31,01,57,9.00
2010,10,31,01,58,9.00
2010,10,31,01,59,9.10
2010,10,31,02,00,9.10
2010,10,31,02,01,9.10
2010,10,31,02,02,9.20
2010,10,31,02,03,9.20
2010,10,31,02,04,9.20
2010,10,31,02,05,9.20
2010,10,31,02,06,9.20
2010,10,31,02,07,9.30
2010,10,31,02,08,9.30
2010,10,31,02,09,9.30
2010,10,31,02,10,9.30
2010,10,31,02,11,9.30
2010,10,31,02,12,9.30
2010,10,31,02,13,9.30
2010,10,31,02,14,9.30
2010,10,31,02,15,9.30
2010,10,31,02,16,9.30
2010,10,31,02,17,9.30
2010,10,31,02,18,9.30
2010,10,31,02,19,9.30
2010,10,31,02,20,9.30
2010,10,31,02,21,9.20
2010,10,31,02,22,9.20
2010,10,31,02,23,9.20
2010,10,31,02,24,9.20
2010,10,31,02,25,9.20
2010,10,31,02,26,9.20
2010,10,31,02,27,9.10
2010,10,31,02,28,9.20
2010,10,31,02,29,9.10
2010,10,31,02,30,9.10
2010,10,31,02,31,9.10
2010,10,31,02,32,9.10
2010,10,31,02,33,9.10
2010,10,31,02,34,9.20
2010,10,31,02,35,9.10
2010,10,31,02,36,9.10
2010,10,31,02,37,9.10
2010,10,31,02,38,9.10
2010,10,31,02,39,9.10
2010,10,31,02,40,9.10
2010,10,31,02,41,9.10
2010,10,31,02,42,9.10
2010,10,31,02,43,9.10
2010,10,31,02,44,9.10
2010,10,31,02,45,9.00
2010,10,31,02,46,9.00
2010,10,31,02,47,9.00
2010,10,31,02,48,8.90
2010,10,31,02,49,8.90
2010,10,31,02,50,8.90
2010,10,31,02,51,8.90
2010,10,31,02,52,8.90
2010,10,31,02,53,8.90
2010,10,31,02,54,8.80
2010,10,31,02,55,8.80
2010,10,31,02,56,8.80
2010,10,31,02,57,8.80
2010,10,31,02,58,8.80
2010,10,31,02,59,8.80
2010,10,31,03,00,8.70
2010,10,31,03,01,8.70
2010,10,31,03,02,8.70
2010,10,31,03,03,8.70
2010,10,31,03,04,8.70
2010,10,31,03,05,8.70
2010,10,31,03,06,8.70
2010,10,31,03,07,8.70
2010,10,31,03,08,8.70
2010,10,31,03,09,8.70
2010,10,31,03,10,8.70
2010,10,31,03,11,8.70
2010,10,31,03,12,8.70
2010,10,31,03,13,8.70
2010,10,31,03,14,8.60
2010,10,31,03,15,8.60
2010,10,31,03,16,8.60
2010,10,31,03,17,8.60
2010,10,31,03,18,8.60
2010,10,31,03,19,8.60
2010,10,31,03,20,8.60
2010,10,31,03,21,8.50
2010,10,31,03,22,8.50
2010,10,31,03,23,8.50
2010,10,31,03,24,8.50
2010,10,31,03,25,8.50
2010,10,31,03,26,8.50
2010,10,31,03,27,8.50
2010,10,31,03,28,8.50
2010,10,31,03,29,8.60
2010,10,31,03,30,8.60
2010,10,31,03,31,8.70
2010,10,31,03,32,8.70
2010,10,31,03,33,8.70
2010,10,31,03,34,8.70
2010,10,31,03,35,8.70
2010,10,31,03,36,8.70
2010,10,31,03,37,8.70
2010,10,31,03,38,8.70
2010,10,31,03,39,8.70
2010,10,31,03,40,8.70
2010,10,31,03,41,8.70
2010,10,31,03,42,8.70
2010,10,31,03,43,8.70
2010,10,31,03,44,8.70
2010,10,31,03,45,8.70
2010,10,31,03,46,8.80
2010,10,31,03,47,8.80
2010,10,31,03,48,8.70
2010,10,31,03,49,8.70
2010,10,31,03,50,8.70
2010,10,31,03,51,8.60
2010,10,31,03,52,8.60
2010,10,31,03,53,8.50
2010,10,31,03,54,8.50
2010,10,31,03,55,8.40
2010,10,31,03,56,8.40
2010,10,31,03,57,8.40
2010,10,31,03,58,8.30
2010,10,31,03,59,8.30
2010,10,31,04,00,8.30
2010,10,31,04,01,8.20
2010,10,31,04,02,8.20
2010,10,31,04,03,8.20
2010,10,31,04,04,8.20
2010,10,31,04,05,8.10
2010,10,31,04,06,8.10
2010,10,31,04,07,8.10
2010,10,31,04,08,8.10
2010,10,31,04,09,8.10
2010,10,31,04,10,8.10
2010,10,31,04,11,8.10
2010,10,31,04,12,8.10
2010,10,31,04,13,8.10
2010,10,31,04,14,8.10
2010,10,31,04,15,8.10
2010,10,31,04,16,8.20
2010,10,31,04,17,8.20
2010,10,31,04,18,8.30
2010,10,31,04,19,8.30
2010,10,31,04,20,8.40
2010,10,31,04,21,8.40
2010,10,31,04,22,8.50
2010,10,31,04,23,8.50
2010,10,31,04,24,8.60
2010,10,31,04,25,8.60
2010,10,31,04,26,8.60
2010,10,31,04,27,8.70
2010,10,31,04,28,8.70
2010,10,31,04,29,8.70
2010,10,31,04,30,8.70
2010,10,31,04,31,8.70
2010,10,31,04,32,8.70
2010,10,31,04,33,8.70
2010,10,31,04,34,8.70
2010,10,31,04,35,8.60
2010,10,31,04,36,8.60
2010,10,31,04,37,8.60
2010,10,31,04,38,8.50
2010,10,31,04,39,8.50
2010,10,31,04,40,8.50
2010,10,31,04,41,8.40
2010,10,31,04,42,8.40
2010,10,31,04,43,8.30
2010,10,31,04,44,8.30
2010,10,31,04,45,8.20
2010,10,31,04,46,8.20
2010,10,31,04,47,8.20
2010,10,31,04,48,8.20
2010,10,31,04,49,8.20
2010,10,31,04,50,8.10
2010,10,31,04,51,8.10
2010,10,31,04,52,8.10
2010,10,31,04,53,8.10
2010,10,31,04,54,8.10
2010,10,31,04,55,8.10
2010,10,31,04,56,8.00
2010,10,31,04,57,8.00
2010,10,31,04,58,7.90
2010,10,31,04,59,7.80
2010,10,31,05,00,7.80
2010,10,31,05,01,7.80
2010,10,31,05,02,7.80
2010,10,31,05,03,7.70
2010,10,31,05,04,7.70
2010,10,31,05,05,7.70
2010,10,31,05,06,7.60
2010,10,31,05,07,7.60
2010,10,31,05,08,7.60
2010,10,31,05,09,7.50
2010,10,31,05,10,7.50
2010,10,31,05,11,7.50
2010,10,31,05,12,7.40
2010,10,31,05,13,7.40
2010,10,31,05,14,7.30
2010,10,31,05,15,7.30
2010,10,31,05,16,7.20
2010,10,31,05,17,7.20
2010,10,31,05,18,7.20
2010,10,31,05,19,7.20
2010,10,31,05,20,7.10
2010,10,31,05,21,7.00
2010,10,31,05,22,7.00
2010,10,31,05,23,6.90
2010,10,31,05,24,6.90
2010,10,31,05,25,6.90
2010,10,31,05,26,6.90
2010,10,31,05,27,6.80
2010,10,31,05,28,6.80
2010,10,31,05,29,6.80
2010,10,31,05,30,6.80
2010,10,31,05,31,6.70
2010,10,31,05,32,6.70
2010,10,31,05,33,6.70
2010,10,31,05,34,6.70
2010,10,31,05,35,6.70
2010,10,31,05,36,6.80
2010,10,31,05,37,6.80
2010,10,31,05,38,6.80
2010,10,31,05,39,6.70
2010,10,31,05,40,6.70
2010,10,31,05,41,6.70
2010,10,31,05,42,6.70
2010,10,31,05,43,6.60
2010,10,31,05,44,6.60
2010,10,31,05,45,6.50
2010,10,31,05,46,6.40
2010,10,31,05,47,6.40
2010,10,31,05,48,6.40
2010,10,31,05,49,6.40
2010,10,31,05,50,6.40
2010,10,31,05,51,6.30
2010,10,31,05,52,6.30
2010,10,31,05,53,6.30
2010,10,31,05,54,6.30
2010,10,31,05,55,6.30
2010,10,31,05,56,6.20
2010,10,31,05,57,6.20
2010,10,31,05,58,6.10
2010,10,31,05,59,6.10
2010,10,31,06,00,6.10
2010,10,31,06,01,6.00
2010,10,31,06,02,6.00
2010,10,31,06,03,5.90
2010,10,31,06,04,5.90
2010,10,31,06,05,5.90
2010,10,31,06,06,5.90
2010,10,31,06,07,5.80
2010,10,31,06,08,5.80
2010,10,31,06,09,5.80
2010,10,31,06,10,5.80
2010,10,31,06,11,5.80
2010,10,31,06,12,5.80
2010,10,31,06,13,5.80
2010,10,31,06,14,5.80
2010,10,31,06,15,5.70
2010,10,31,06,16,5.70
2010,10,31,06,17,5.70
2010,10,31,06,18,5.70
2010,10,31,06,19,5.70
2010,10,31,06,20,5.70
2010,10,31,06,21,5.70
2010,10,31,06,22,5.70
2010,10,31,06,23,5.70
2010,10,31,06,24,5.60
2010,10,31,06,25,5.60
2010,10,31,06,26,5.60
2010,10,31,06,27,5.60
2010,10,31,06,28,5.60
2010,10,31,06,29,5.60
2010,10,31,06,30,5.60
2010,10,31,06,31,5.60
2010,10,31,06,32,5.60
2010,10,31,06,33,5.60
2010,10,31,06,34,5.60
2010,10,31,06,35,5.60
2010,10,31,06,36,5.60
2010,10,31,06,37,5.60
2010,10,31,06,38,5.60
2010,10,31,06,39,5.60
2010,10,31,06,40,5.60
2010,10,31,06,41,5.50
2010,10,31,06,42,5.50
2010,10,31,06,43,5.50
2010,10,31,06,44,5.50
2010,10,31,06,45,5.50
2010,10,31,06,46,5.40
2010,10,31,06,47,5.50
2010,10,31,06,48,5.40
2010,10,31,06,49,5.40
2010,10,31,06,50,5.40
2010,10,31,06,51,5.40
2010,10,31,06,52,5.40
2010,10,31,06,53,5.40
2010,10,31,06,54,5.40
2010,10,31,06,55,5.40
2010,10,31,06,56,5.40
2010,10,31,06,57,5.40
2010,10,31,06,58,5.40
2010,10,31,06,59,5.40
2010,10,31,07,00,5.40
2010,10,31,07,01,5.40
2010,10,31,07,02,5.40
2010,10,31,07,03,5.40
2010,10,31,07,04,5.40
2010,10,31,07,05,5.40
2010,10,31,07,06,5.40
2010,10,31,07,07,5.30
2010,10,31,07,08,5.30
2010,10,31,07,09,5.30
2010,10,31,07,10,5.30
2010,10,31,07,11,5.30
2010,10,31,07,12,5.30
2010,10,31,07,13,5.20
2010,10,31,07,14,5.20
2010,10,31,07,15,5.20
2010,10,31,07,16,5.20
2010,10,31,07,17,5.20
2010,10,31,07,18,5.20
2010,10,31,07,19,5.20
2010,10,31,07,20,5.10
2010,10,31,07,21,5.10
2010,10,31,07,22,5.10
2010,10,31,07,23,5.00
2010,10,31,07,24,5.00
2010,10,31,07,25,4.90
2010,10,31,07,26,5.00
2010,10,31,07,27,5.00
2010,10,31,07,28,5.00
2010,10,31,07,29,5.00
2010,10,31,07,30,5.10
2010,10,31,07,31,5.10
2010,10,31,07,32,5.00
2010,10,31,07,33,5.00
2010,10,31,07,34,5.00
2010,10,31,07,35,5.00
2010,10,31,07,36,5.00
2010,10,31,07,37,4.90
2010,10,31,07,38,4.90
2010,10,31,07,39,4.90
2010,10,31,07,40,4.80
2010,10,31,07,41,4.80
2010,10,31,07,42,4.70
2010,10,31,07,43,4.70
2010,10,31,07,44,4.70
2010,10,31,07,45,4.70
2010,10,31,07,46,4.70
2010,10,31,07,47,4.70
2010,10,31,07,48,4.70
2010,10,31,07,49,4.70
2010,10,31,07,50,4.70
2010,10,31,07,51,4.70
2010,10,31,07,52,4.70
2010,10,31,07,53,4.70
2010,10,31,07,54,4.60
2010,10,31,07,55,4.60
2010,10,31,07,56,4.60
2010,10,31,07,57,4.60
2010,10,31,07,58,4.60
2010,10,31,07,59,4.60
2010,10,31,08,00,4.60
2010,10,31,08,01,4.60
2010,10,31,08,02,4.60
2010,10,31,08,03,4.60
2010,10,31,08,04,4.60
2010,10,31,08,05,4.60
2010,10,31,08,06,4.60
2010,10,31,08,07,4.60
2010,10,31,08,08,4.60
2010,10,31,08,09,4.60
2010,10,31,08,10,4.70
2010,10,31,08,11,4.70
2010,10,31,08,12,4.80
2010,10,31,08,13,4.80
2010,10,31,08,14,4.80
2010,10,31,08,15,4.80
2010,10,31,08,16,4.90
2010,10,31,08,17,4.90
2010,10,31,08,18,5.00
2010,10,31,08,19,5.00
2010,10,31,08,20,5.10
2010,10,31,08,21,5.20
2010,10,31,08,22,5.20
2010,10,31,08,23,5.30
2010,10,31,08,24,5.30
2010,10,31,08,25,5.30
2010,10,31,08,26,5.40
2010,10,31,08,27,5.40
2010,10,31,08,28,5.40
2010,10,31,08,29,5.50
2010,10,31,08,30,5.50
2010,10,31,08,31,5.60
2010,10,31,08,32,5.60
2010,10,31,08,33,5.60
2010,10,31,08,34,5.70
2010,10,31,08,35,5.70
2010,10,31,08,36,5.70
2010,10,31,08,37,5.80
2010,10,31,08,38,5.80
2010,10,31,08,39,5.90
2010,10,31,08,40,5.90
2010,10,31,08,41,6.00
2010,10,31,08,42,6.10
2010,10,31,08,43,6.10
2010,10,31,08,44,6.20
2010,10,31,08,45,6.20
2010,10,31,08,46,6.30
2010,10,31,08,47,6.40
2010,10,31,08,48,6.40
2010,10,31,08,49,6.50
2010,10,31,08,50,6.50
2010,10,31,08,51,6.60
2010,10,31,08,52,6.60
2010,10,31,08,53,6.70
2010,10,31,08,54,6.70
2010,10,31,08,55,6.80
2010,10,31,08,56,6.80
2010,10,31,08,57,6.80
2010,10,31,08,58,6.90
2010,10,31,08,59,6.90
2010,10,31,09,00,6.90
2010,10,31,09,01,7.00
2010,10,31,09,02,7.00
2010,10,31,09,03,7.00
2010,10,31,09,04,7.10
2010,10,31,09,05,7.10
2010,10,31,09,06,7.20
2010,10,31,09,07,7.20
2010,10,31,09,08,7.20
2010,10,31,09,09,7.20
2010,10,31,09,10,7.30
2010,10,31,09,11,7.40
2010,10,31,09,12,7.50
2010,10,31,09,13,7.60
2010,10,31,09,14,7.70
2010,10,31,09,15,7.80
2010,10,31,09,16,7.80
2010,10,31,09,17,7.90
2010,10,31,09,18,8.00
2010,10,31,09,19,8.10
2010,10,31,09,20,8.20
2010,10,31,09,21,8.20
2010,10,31,09,22,8.30
2010,10,31,09,23,8.30
2010,10,31,09,24,8.30
2010,10,31,09,25,8.40
2010,10,31,09,26,8.40
2010,10,31,09,27,8.40
2010,10,31,09,28,8.40
2010,10,31,09,29,8.40
2010,10,31,09,30,8.40
2010,10,31,09,31,8.50
2010,10,31,09,32,8.50
2010,10,31,09,33,8.50
2010,10,31,09,34,8.60
2010,10,31,09,35,8.60
2010,10,31,09,36,8.60
2010,10,31,09,37,8.70
2010,10,31,09,38,8.70
2010,10,31,09,39,8.70
2010,10,31,09,40,8.80
2010,10,31,09,41,8.80
2010,10,31,09,42,8.90
2010,10,31,09,43,8.90
2010,10,31,09,44,9.00
2010,10,31,09,45,9.10
2010,10,31,09,46,9.10
2010,10,31,09,47,9.20
2010,10,31,09,48,9.30
2010,10,31,09,49,9.40
2010,10,31,09,50,9.40
2010,10,31,09,51,9.40
2010,10,31,09,52,9.40
2010,10,31,09,53,9.40
2010,10,31,09,54,9.40
2010,10,31,09,55,9.30
2010,10,31,09,56,9.30
2010,10,31,09,57,9.30
2010,10,31,09,58,9.30
2010,10,31,09,59,9.20
2010,10,31,10,00,9.20
2010,10,31,10,01,9.10
2010,10,31,10,02,9.10
2010,10,31,10,03,9.10
2010,10,31,10,04,9.10
2010,10,31,10,05,9.10
2010,10,31,10,06,9.20
2010,10,31,10,07,9.20
2010,10,31,10,08,9.30
2010,10,31,10,09,9.30
2010,10,31,10,10,9.30
2010,10,31,10,11,9.40
2010,10,31,10,12,9.40
2010,10,31,10,13,9.40
2010,10,31,10,14,9.50
2010,10,31,10,15,9.50
2010,10,31,10,16,9.50
2010,10,31,10,17,9.60
2010,10,31,10,18,9.60
2010,10,31,10,19,9.70
2010,10,31,10,20,9.70
2010,10,31,10,21,9.80
2010,10,31,10,22,9.80
2010,10,31,10,23,9.80
2010,10,31,10,24,9.90
2010,10,31,10,25,9.90
2010,10,31,10,26,10.00
2010,10,31,10,27,10.00
2010,10,31,10,28,10.10
2010,10,31,10,29,10.10
2010,10,31,10,30,10.10
2010,10,31,10,31,10.20
2010,10,31,10,32,10.20
2010,10,31,10,33,10.20
2010,10,31,10,34,10.20
2010,10,31,10,35,10.20
2010,10,31,10,36,10.20
2010,10,31,10,37,10.30
2010,10,31,10,38,10.30
2010,10,31,10,39,10.30
2010,10,31,10,40,10.30
2010,10,31,10,41,10.30
2010,10,31,10,42,10.30
2010,10,31,10,43,10.30
2010,10,31,10,44,10.40
2010,10,31,10,45,10.40
2010,10,31,10,46,10.40
2010,10,31,10,47,10.50
2010,10,31,10,48,10.50
2010,10,31,10,49,10.60
2010,10,31,10,50,10.60
2010,10,31,10,51,10.70
2010,10,31,10,52,10.70
2010,10,31,10,53,10.70
2010,10,31,10,54,10.70
2010,10,31,10,55,10.70
2010,10,31,10,56,10.80
2010,10,31,10,57,10.80
2010,10,31,10,58,10.80
2010,10,31,10,59,10.80
2010,10,31,11,00,10.80
2010,10,31,11,01,10.80
2010,10,31,11,02,10.90
2010,10,31,11,03,10.90
2010,10,31,11,04,10.90
2010,10,31,11,05,10.90
2010,10,31,11,06,10.90
2010,10,31,11,07,10.90
2010,10,31,11,08,10.90
2010,10,31,11,09,10.90
2010,10,31,11,10,10.90
2010,10,31,11,11,10.90
2010,10,31,11,12,10.80
2010,10,31,11,13,10.80
2010,10,31,11,14,10.80
2010,10,31,11,15,10.80
2010,10,31,11,16,10.90
2010,10,31,11,17,10.90
2010,10,31,11,18,10.90
2010,10,31,11,19,10.90
2010,10,31,11,20,10.90
2010,10,31,11,21,10.90
2010,10,31,11,22,10.90
2010,10,31,11,23,10.90
2010,10,31,11,24,11.00
2010,10,31,11,25,11.00
2010,10,31,11,26,11.10
2010,10,31,11,27,11.10
2010,10,31,11,28,11.10
2010,10,31,11,29,11.20
2010,10,31,11,30,11.20
2010,10,31,11,31,11.20
2010,10,31,11,32,11.30
2010,10,31,11,33,11.30
2010,10,31,11,34,11.30
2010,10,31,11,35,11.30
2010,10,31,11,36,11.40
2010,10,31,11,37,11.40
2010,10,31,11,38,11.40
2010,10,31,11,39,11.40
2010,10,31,11,40,11.40
2010,10,31,11,41,11.40
2010,10,31,11,42,11.40
2010,10,31,11,43,11.40
2010,10,31,11,44,11.30
2010,10,31,11,45,11.30
2010,10,31,11,46,11.30
2010,10,31,11,47,11.30
2010,10,31,11,48,11.40
2010,10,31,11,49,11.40
2010,10,31,11,50,11.50
2010,10,31,11,51,11.50
2010,10,31,11,52,11.50
2010,10,31,11,53,11.50
2010,10,31,11,54,11.50
2010,10,31,11,55,11.50
2010,10,31,11,56,11.40
2010,10,31,11,57,11.40
2010,10,31,11,58,11.40
2010,10,31,11,59,11.40
2010,10,31,12,00,11.30
2010,10,31,12,01,11.30
2010,10,31,12,02,11.30
2010,10,31,12,03,11.30
2010,10,31,12,04,11.30
2010,10,31,12,05,11.30
2010,10,31,12,06,11.30
2010,10,31,12,07,11.30
2010,10,31,12,08,11.30
2010,10,31,12,09,11.30
2010,10,31,12,10,11.30
2010,10,31,12,11,11.30
2010,10,31,12,12,11.30
2010,10,31,12,13,11.40
2010,10,31,12,14,11.40
2010,10,31,12,15,11.50
2010,10,31,12,16,11.60
2010,10,31,12,17,11.60
2010,10,31,12,18,11.60
2010,10,31,12,19,11.60
2010,10,31,12,20,11.60
2010,10,31,12,21,11.60
2010,10,31,12,22,11.60
2010,10,31,12,23,11.60
2010,10,31,12,24,11.60
2010,10,31,12,25,11.60
2010,10,31,12,26,11.50
2010,10,31,12,27,11.50
2010,10,31,12,28,11.50
2010,10,31,12,29,11.40
2010,10,31,12,30,11.40
2010,10,31,12,31,11.40
2010,10,31,12,32,11.40
2010,10,31,12,33,11.40
2010,10,31,12,34,11.40
2010,10,31,12,35,11.30
2010,10,31,12,36,11.30
2010,10,31,12,37,11.30
2010,10,31,12,38,11.30
2010,10,31,12,39,11.30
2010,10,31,12,40,11.30
2010,10,31,12,41,11.40
2010,10,31,12,42,11.40
2010,10,31,12,43,11.40
2010,10,31,12,44,11.40
2010,10,31,12,45,11.40
2010,10,31,12,46,11.40
2010,10,31,12,47,11.40
2010,10,31,12,48,11.40
2010,10,31,12,49,11.40
2010,10,31,12,50,11.40
2010,10,31,12,51,11.40
2010,10,31,12,52,11.40
2010,10,31,12,53,11.40
2010,10,31,12,54,11.30
2010,10,31,12,55,11.30
2010,10,31,12,56,11.30
2010,10,31,12,57,11.30
2010,10,31,12,58,11.30
2010,10,31,12,59,11.30
2010,10,31,13,00,11.30
2010,10,31,13,01,11.30
2010,10,31,13,02,11.20
2010,10,31,13,03,11.20
2010,10,31,13,04,11.20
2010,10,31,13,05,11.20
2010,10,31,13,06,11.20
2010,10,31,13,07,11.20
2010,10,31,13,08,11.20
2010,10,31,13,09,11.20
2010,10,31,13,10,11.20
2010,10,31,13,11,11.20
2010,10,31,13,12,11.30
2010,10,31,13,13,11.30
2010,10,31,13,14,11.30
2010,10,31,13,15,11.30
2010,10,31,13,16,11.20
2010,10,31,13,17,11.20
2010,10,31,13,18,11.10
2010,10,31,13,19,11.10
2010,10,31,13,20,11.00
2010,10,31,13,21,11.00
2010,10,31,13,22,11.00
2010,10,31,13,23,10.90
2010,10,31,13,24,10.90
2010,10,31,13,25,10.90
2010,10,31,13,26,10.90
2010,10,31,13,27,10.90
2010,10,31,13,28,11.00
2010,10,31,13,29,11.00
2010,10,31,13,30,11.00
2010,10,31,13,31,11.10
2010,10,31,13,32,11.10
2010,10,31,13,33,11.10
2010,10,31,13,34,11.20
2010,10,31,13,35,11.20
2010,10,31,13,36,11.20
2010,10,31,13,37,11.20
2010,10,31,13,38,11.10
2010,10,31,13,39,11.10
2010,10,31,13,40,11.10
2010,10,31,13,41,11.00
2010,10,31,13,42,11.00
2010,10,31,13,43,11.00
2010,10,31,13,44,10.90
2010,10,31,13,45,10.80
2010,10,31,13,46,10.70
2010,10,31,13,47,10.60
2010,10,31,13,48,10.50
2010,10,31,13,49,10.40
2010,10,31,13,50,10.40
2010,10,31,13,51,10.30
2010,10,31,13,52,10.30
2010,10,31,13,53,10.20
2010,10,31,13,54,10.20
2010,10,31,13,55,10.10
2010,10,31,13,56,10.10
2010,10,31,13,57,10.00
2010,10,31,13,58,9.90
2010,10,31,13,59,9.90
2010,10,31,14,00,9.80
2010,10,31,14,01,9.80
2010,10,31,14,02,9.80
2010,10,31,14,03,9.80
2010,10,31,14,04,9.80
2010,10,31,14,05,9.80
2010,10,31,14,06,9.80
2010,10,31,14,07,9.80
2010,10,31,14,08,9.80
2010,10,31,14,09,9.80
2010,10,31,14,10,9.80
2010,10,31,14,11,9.80
2010,10,31,14,12,9.80
2010,10,31,14,13,9.70
2010,10,31,14,14,9.70
2010,10,31,14,15,9.70
2010,10,31,14,16,9.70
2010,10,31,14,17,9.70
2010,10,31,14,18,9.70
2010,10,31,14,19,9.70
2010,10,31,14,20,9.60
2010,10,31,14,21,9.70
2010,10,31,14,22,9.70
2010,10,31,14,23,9.70
2010,10,31,14,24,9.70
2010,10,31,14,25,9.70
2010,10,31,14,26,9.70
2010,10,31,14,27,9.70
2010,10,31,14,28,9.70
2010,10,31,14,29,9.70
2010,10,31,14,30,9.70
2010,10,31,14,31,9.70
2010,10,31,14,32,9.70
2010,10,31,14,33,9.70
2010,10,31,14,34,9.70
2010,10,31,14,35,9.80
2010,10,31,14,36,9.80
2010,10,31,14,37,9.80
2010,10,31,14,38,9.80
2010,10,31,14,39,9.80
2010,10,31,14,40,9.80
2010,10,31,14,41,9.80
2010,10,31,14,42,9.80
2010,10,31,14,43,9.90
2010,10,31,14,44,9.90
2010,10,31,14,45,9.90
2010,10,31,14,46,9.90
2010,10,31,14,47,9.90
2010,10,31,14,48,9.90
2010,10,31,14,49,9.90
2010,10,31,14,50,9.90
2010,10,31,14,51,9.90
2010,10,31,14,52,9.90
2010,10,31,14,53,9.90
2010,10,31,14,54,9.90
2010,10,31,14,55,9.90
2010,10,31,14,56,9.90
2010,10,31,14,57,9.90
2010,10,31,14,58,9.90
2010,10,31,14,59,9.90
2010,10,31,15,00,9.90
2010,10,31,15,01,9.90
2010,10,31,15,02,9.90
2010,10,31,15,03,10.00
2010,10,31,15,04,10.00
2010,10,31,15,05,10.00
2010,10,31,15,06,10.00
2010,10,31,15,07,10.10
2010,10,31,15,08,10.10
2010,10,31,15,09,10.10
2010,10,31,15,10,10.10
2010,10,31,15,11,10.10
2010,10,31,15,12,10.10
2010,10,31,15,13,10.10
2010,10,31,15,14,10.20
2010,10,31,15,15,10.20
2010,10,31,15,16,10.20
2010,10,31,15,17,10.30
2010,10,31,15,18,10.30
2010,10,31,15,19,10.30
2010,10,31,15,20,10.30
2010,10,31,15,21,10.30
2010,10,31,15,22,10.30
2010,10,31,15,23,10.20
2010,10,31,15,24,10.20
2010,10,31,15,25,10.20
2010,10,31,15,26,10.20
2010,10,31,15,27,10.20
2010,10,31,15,28,10.20
2010,10,31,15,29,10.20
2010,10,31,15,30,10.20
2010,10,31,15,31,10.30
2010,10,31,15,32,10.30
2010,10,31,15,33,10.30
2010,10,31,15,34,10.30
2010,10,31,15,35,10.30
2010,10,31,15,36,10.40
2010,10,31,15,37,10.40
2010,10,31,15,38,10.40
2010,10,31,15,39,10.40
2010,10,31,15,40,10.30
2010,10,31,15,41,10.30
2010,10,31,15,42,10.30
2010,10,31,15,43,10.30
2010,10,31,15,44,10.30
2010,10,31,15,45,10.40
2010,10,31,15,46,10.40
2010,10,31,15,47,10.40
2010,10,31,15,48,10.40
2010,10,31,15,49,10.40
2010,10,31,15,50,10.40
2010,10,31,15,51,10.40
2010,10,31,15,52,10.40
2010,10,31,15,53,10.40
2010,10,31,15,54,10.40
2010,10,31,15,55,10.40
2010,10,31,15,56,10.40
2010,10,31,15,57,10.40
2010,10,31,15,58,10.40
2010,10,31,15,59,10.40
2010,10,31,16,00,10.40
2010,10,31,16,01,10.40
2010,10,31,16,02,10.40
2010,10,31,16,03,10.40
2010,10,31,16,04,10.40
2010,10,31,16,05,10.40
2010,10,31,16,06,10.40
2010,10,31,16,07,10.30
2010,10,31,16,08,10.30
2010,10,31,16,09,10.30
2010,10,31,16,10,10.30
2010,10,31,16,11,10.30
2010,10,31,16,12,10.30
2010,10,31,16,13,10.30
2010,10,31,16,14,10.30
2010,10,31,16,15,10.30
2010,10,31,16,16,10.30
2010,10,31,16,17,10.30
2010,10,31,16,18,10.30
2010,10,31,16,19,10.30
2010,10,31,16,20,10.30
2010,10,31,16,21,10.30
2010,10,31,16,22,10.20
2010,10,31,16,23,10.20
2010,10,31,16,24,10.20
2010,10,31,16,25,10.20
2010,10,31,16,26,10.20
2010,10,31,16,27,10.20
2010,10,31,16,28,10.20
2010,10,31,16,29,10.10
2010,10,31,16,30,10.10
2010,10,31,16,31,10.20
2010,10,31,16,32,10.20
2010,10,31,16,33,10.20
2010,10,31,16,34,10.20
2010,10,31,16,35,10.20
2010,10,31,16,36,10.20
2010,10,31,16,37,10.20
2010,10,31,16,38,10.20
2010,10,31,16,39,10.20
2010,10,31,16,40,10.20
2010,10,31,16,41,10.20
2010,10,31,16,42,10.10
2010,10,31,16,43,10.10
2010,10,31,16,44,10.10
2010,10,31,16,45,10.10
2010,10,31,16,46,10.10
2010,10,31,16,47,10.10
2010,10,31,16,48,10.00
2010,10,31,16,49,10.00
2010,10,31,16,50,10.00
2010,10,31,16,51,9.90
2010,10,31,16,52,9.90
2010,10,31,16,53,9.90
2010,10,31,16,54,9.90
2010,10,31,16,55,9.90
2010,10,31,16,56,9.90
2010,10,31,16,57,9.90
2010,10,31,16,58,9.90
2010,10,31,16,59,9.80
2010,10,31,17,00,9.80
2010,10,31,17,01,9.90
2010,10,31,17,02,9.90
2010,10,31,17,03,9.90
2010,10,31,17,04,9.90
2010,10,31,17,05,9.90
2010,10,31,17,06,9.90
2010,10,31,17,07,9.90
2010,10,31,17,08,9.90
2010,10,31,17,09,9.90
2010,10,31,17,10,9.90
2010,10,31,17,11,9.90
2010,10,31,17,12,9.80
2010,10,31,17,13,9.80
2010,10,31,17,14,9.80
2010,10,31,17,15,9.80
2010,10,31,17,16,9.80
2010,10,31,17,17,9.80
2010,10,31,17,18,9.80
2010,10,31,17,19,9.70
2010,10,31,17,20,9.70
2010,10,31,17,21,9.70
2010,10,31,17,22,9.70
2010,10,31,17,23,9.70
2010,10,31,17,24,9.70
2010,10,31,17,25,9.70
2010,10,31,17,26,9.70
2010,10,31,17,27,9.60
2010,10,31,17,28,9.60
2010,10,31,17,29,9.60
2010,10,31,17,30,9.60
2010,10,31,17,31,9.60
2010,10,31,17,32,9.60
2010,10,31,17,33,9.60
2010,10,31,17,34,9.50
2010,10,31,17,35,9.50
2010,10,31,17,36,9.50
2010,10,31,17,37,9.40
2010,10,31,17,38,9.40
2010,10,31,17,39,9.40
2010,10,31,17,40,9.40
2010,10,31,17,41,9.40
2010,10,31,17,42,9.30
2010,10,31,17,43,9.30
2010,10,31,17,44,9.30
2010,10,31,17,45,9.30
2010,10,31,17,46,9.30
2010,10,31,17,47,9.30
2010,10,31,17,48,9.30
2010,10,31,17,49,9.30
2010,10,31,17,50,9.30
2010,10,31,17,51,9.30
2010,10,31,17,52,9.20